[[{"header":{"parameterUnit":"m.s-1","parameterCategory":1,"la1":30.2991,"la2":30.254,"lo1":-89.0895,"lo2":-89.0444,"dy":0.0017,"dx":0.0017,"nx":28,"ny":28,"refTime":"2023-11-20T03:00:00:Z","depth":0,"parameterNumber":2,"parameterNumberName":"U-component_of_WINDS"},"data":[0,0,0,0,0,0,0,0,0,0,0,0,0,0,0,0,0,0,0,0,0,0,0,0,0,0,0,0,0,0,0,0,0,0,0,0,0,0,0,0,0,0,0,0,0,0,0,0,0,0,0,0,0,0,0,0,0,0,2.8743,2.8744,0,2.8837,2.8838,2.8839,2.8825,2.8823,2.8821,2.882,2.892,2.8924,2.8928,0,0,0,0,0,0,0,0,0,0,0,0,0,2.8558,2.8561,2.8743,2.8744,2.8745,2.8837,2.8838,2.8839,2.8825,2.8823,2.8821,2.8819,2.8919,2.8924,2.8929,0,0,0,0,0,0,0,0,0,0,0,0,0,2.8644,2.8563,2.8743,2.8749,2.875,2.8837,2.8838,2.884,2.8825,2.8823,2.882,2.8818,2.8917,2.8923,2.8929,2.9016,0,0,2.8948,2.8951,0,0,0,0,0,0,0,0,2.8639,2.8651,2.8747,2.8749,2.875,2.8816,2.881,2.8899,2.8826,2.8797,2.882,2.8817,2.8888,2.8896,2.8919,2.9021,2.9025,2.8949,2.8953,2.8956,2.8957,0,0,0,0,0,0,0,2.8633,2.8647,2.878,2.8748,2.8751,2.875,2.8759,2.8827,2.8855,2.8799,2.8798,2.881,2.8888,2.8913,2.8922,2.9027,2.8949,2.8954,2.8958,2.8961,2.9212,2.9215,0,0,0,0,0,0,2.8625,2.8642,2.8777,2.8783,2.8688,2.8755,2.8765,2.8798,2.8854,2.886,2.8812,2.8809,2.8904,2.8914,2.8925,2.9035,2.8955,2.8961,2.8965,2.9209,2.9213,2.9216,0,0,0,0,0,0,2.8621,2.8637,2.8773,2.8712,2.873,2.876,2.8797,2.8801,2.8826,2.8863,2.8869,2.8831,2.8902,2.8916,2.8995,2.9038,2.8964,2.897,2.9206,2.921,2.9214,2.9254,0,0,0,0,0,0,2.8615,2.8635,2.8667,2.8713,2.8733,2.884,2.88,2.8805,2.8836,2.8833,2.8884,2.889,2.8902,2.8986,2.9001,2.9046,2.8975,2.9202,2.9208,2.9213,2.9249,2.9259,2.9267,0,0,0,0,0,2.8609,2.8673,2.8668,2.8685,2.8772,2.8842,2.8853,2.8865,2.884,2.8873,2.8898,2.8888,2.9031,2.8994,2.9011,2.9058,2.9199,2.9206,2.9213,2.9244,2.9257,2.9267,0,0,0,0,0,0,2.8631,2.8679,2.8674,2.8755,2.8795,2.8839,2.8881,2.8877,2.8925,2.892,2.8934,2.8945,2.9026,2.905,2.9008,2.9149,2.9112,2.9123,2.913,2.9143,2.9152,2.9145,2.898,0,0,0,0,0,2.8645,2.8696,2.8736,2.8804,2.8824,2.885,2.888,2.8886,2.8928,2.8945,2.8975,2.9018,2.9073,2.9109,2.9161,2.9252,2.9266,2.9293,2.9303,2.931,2.932,2.9376,2.939,2.9237,2.9237,2.9237,0,0,2.8675,2.8708,2.8739,2.881,2.8841,2.8896,2.8863,2.8922,2.8964,2.8954,2.9031,2.9055,2.9104,2.9191,2.9231,2.9213,2.9365,2.9319,2.9324,2.933,2.9384,2.9398,2.9411,2.9242,2.9241,2.924,0,0,2.8759,2.8787,2.8849,2.8882,2.893,2.8948,2.8963,2.9009,2.9025,2.9103,2.9098,2.915,2.9243,2.9279,2.931,2.9414,2.9409,2.9431,2.9481,2.9535,2.9547,2.9558,2.9599,2.9614,2.944,2.944,2.944,0,2.8791,2.8872,2.8882,2.8943,2.8976,2.897,2.9036,2.9067,2.913,2.9155,2.9134,2.9255,2.9287,2.9385,2.9411,2.9434,2.9456,2.9426,2.9544,2.9555,2.9565,2.9605,2.962,2.9443,2.9442,2.9442,2.9442,0,2.8911,2.8968,2.9013,2.9075,2.9113,2.9176,2.9199,2.9237,2.9241,2.9261,2.9344,2.9383,2.9445,2.9469,2.9472,2.9569,2.9558,2.954,2.9504,2.9582,2.962,2.9635,2.9447,2.9446,2.9445,2.9444,0,0,2.9009,2.9079,2.9096,2.9126,2.9181,2.9227,2.9292,2.9353,2.9388,2.9433,2.949,2.9572,2.9558,2.9593,2.9602,2.9649,2.9735,2.9627,2.9628,2.9649,2.985,2.9865,2.9882,2.9731,2.9734,2.9736,2.9848,0,2.9101,2.9214,2.9227,2.9329,2.9385,2.9383,2.944,2.9482,2.9504,2.9557,2.9582,2.9642,2.9616,2.9639,2.9685,2.9714,2.9776,2.9706,2.9789,2.9791,2.9779,2.9901,2.9915,3.0018,2.9862,2.9864,2.9866,0,2.9222,2.9272,2.938,2.9432,2.9456,2.9507,2.9567,2.9616,2.9666,2.968,2.9722,2.9725,2.9797,2.9757,2.9858,2.9811,2.9846,2.9866,2.987,2.988,2.9835,2.9918,3.0051,3.0067,2.9889,2.9887,2.9885,0,2.9288,2.9382,2.946,2.9486,2.9548,2.9585,2.9613,2.966,2.9698,2.9751,2.9777,2.9838,2.9872,2.9921,2.9943,2.9911,3.0045,3.0005,3.0062,3.0062,3.0091,3.0089,3.0235,3.0109,3.0109,3.0108,3.0108,0,2.939,2.9457,2.9491,2.9539,2.9616,2.9633,2.971,2.9737,2.978,2.9836,2.9837,2.989,2.9915,2.9973,2.9991,3.0075,3.009,3.0106,3.011,3.0107,3.0106,3.0131,3.0126,3.0112,3.0111,3.0111,3.011,0,2.9477,2.9502,2.9587,2.964,2.9656,2.9711,2.9757,2.9806,2.9829,2.9901,2.9919,2.9956,3.0026,3.0052,3.0136,3.0149,3.0247,3.0244,3.023,3.0232,3.0289,3.0284,3.0458,3.0484,3.0338,3.0339,3.034,0,2.9542,2.9594,2.9653,2.9691,2.9721,2.9781,2.982,2.984,2.9882,2.9946,2.9988,3.0057,3.0113,3.0225,3.0261,3.0328,3.0328,3.0385,3.0338,3.0336,3.0334,3.0332,3.034,3.0394,3.0396,3.0397,3.0398,0,2.9656,2.9667,2.9723,2.9785,2.9833,2.9882,2.9931,2.9962,2.9991,3.0038,3.0109,3.0153,3.0241,3.0311,3.038,3.0412,3.0412,3.0412,3.043,3.0428,3.042,3.0429,3.0258,3.0408,3.0407,3.0407,3.0406,3.0406,2.9736,2.9785,2.9836,2.99,2.9939,2.9986,3.0036,3.0067,3.0126,3.0198,3.0207,3.0285,3.0339,3.0431,3.0467,3.053,3.0516,3.0539,3.0546,3.0552,3.0559,3.0408,3.0542,3.0542,3.0542,3.0542,3.0542,0,2.9854,2.9888,2.9946,3.0016,3.0068,3.0062,3.0117,3.0162,3.0229,3.0279,3.0336,3.042,3.049,3.0533,3.0604,3.0647,3.0649,3.0665,3.0664,3.0672,3.0565,3.0545,3.0663,3.0663,3.0663,3.0663,3.0663,3.0663,2.9921,3.0004,3.0022,3.0127,3.016,3.0236,3.0269,3.0314,3.0354,3.0449,3.0506,3.0534,3.0583,3.0659,3.0724,3.0735,3.0763,3.0781,3.0792,3.0692,3.0679,3.0667,3.0648,3.0786,3.0786,3.0894,3.0895,3.0896]},{"header":{"parameterUnit":"m.s-1","parameterCategory":1,"la1":30.2991,"la2":30.254,"lo1":-89.0895,"lo2":-89.0444,"dy":0.0017,"dx":0.0017,"nx":28,"ny":28,"refTime":"2023-11-20T03:00:00:Z","depth":0,"parameterNumber":3,"parameterNumberName":"V-component_of_WINDS"},"data":[0,0,0,0,0,0,0,0,0,0,0,0,0,0,0,0,0,0,0,0,0,0,0,0,0,0,0,0,0,0,0,0,0,0,0,0,0,0,0,0,0,0,0,0,0,0,0,0,0,0,0,0,0,0,0,0,0,0,-3.2862,-3.2859,0,-3.2617,-3.2615,-3.2612,-3.2518,-3.2519,-3.2519,-3.252,-3.225,-3.2243,-3.2235,0,0,0,0,0,0,0,0,0,0,0,0,0,-3.3229,-3.3223,-3.2862,-3.2859,-3.2856,-3.2618,-3.2614,-3.2611,-3.2518,-3.2519,-3.252,-3.252,-3.2253,-3.2244,-3.2234,0,0,0,0,0,0,0,0,0,0,0,0,0,-3.3036,-3.3221,-3.2863,-3.2781,-3.2772,-3.2619,-3.2614,-3.261,-3.2517,-3.2519,-3.252,-3.2521,-3.2256,-3.2245,-3.2233,-3.2137,0,0,-3.2197,-3.2192,0,0,0,0,0,0,0,0,-3.3047,-3.3022,-3.2796,-3.2787,-3.2776,-3.26,-3.2645,-3.2451,-3.2517,-3.2613,-3.252,-3.2521,-3.2364,-3.2344,-3.2295,-3.2124,-3.2113,-3.2196,-3.2189,-3.2183,-3.218,0,0,0,0,0,0,0,-3.306,-3.3032,-3.2765,-3.2793,-3.278,-3.2751,-3.2724,-3.2608,-3.2485,-3.2605,-3.2598,-3.2571,-3.2359,-3.2306,-3.2288,-3.2109,-3.2196,-3.2186,-3.2178,-3.2174,-3.1843,-3.1842,0,0,0,0,0,0,-3.309,-3.3044,-3.2772,-3.2757,-3.2917,-3.2743,-3.2714,-3.2655,-3.2486,-3.2462,-3.257,-3.2568,-3.2326,-3.2302,-3.2278,-3.2153,-3.2184,-3.2172,-3.2166,-3.1845,-3.1843,-3.1841,0,0,0,0,0,0,-3.3098,-3.3067,-3.2782,-3.2899,-3.286,-3.2736,-3.267,-3.2649,-3.2597,-3.246,-3.2436,-3.2541,-3.2326,-3.2294,-3.2173,-3.2142,-3.2167,-3.2156,-3.1847,-3.1844,-3.1842,-3.1904,0,0,0,0,0,0,-3.3109,-3.307,-3.3037,-3.2899,-3.2855,-3.2688,-3.2668,-3.2644,-3.2579,-3.2573,-3.2426,-3.2402,-3.2324,-3.2192,-3.2162,-3.2126,-3.2147,-3.1849,-3.1846,-3.1843,-3.1904,-3.1904,-3.1903,0,0,0,0,0,-3.3123,-3.3061,-3.3036,-3.3004,-3.2812,-3.2687,-3.2661,-3.2578,-3.2577,-3.254,-3.2451,-3.2407,-3.2151,-3.218,-3.2145,-3.2106,-3.1851,-3.1847,-3.1843,-3.1904,-3.1904,-3.1903,0,0,0,0,0,0,-3.3192,-3.3041,-3.3012,-3.2905,-3.2811,-3.2672,-3.2622,-3.2581,-3.2479,-3.2477,-3.2373,-3.234,-3.2227,-3.2153,-3.2189,-3.2002,-3.1997,-3.1986,-3.2055,-3.2054,-3.2053,-3.2072,-3.2137,0,0,0,0,0,-3.3197,-3.3114,-3.2983,-3.2901,-3.2856,-3.2748,-3.269,-3.2635,-3.2529,-3.2487,-3.239,-3.2284,-3.2179,-3.2112,-3.2008,-3.1893,-3.1857,-3.1848,-3.1848,-3.1848,-3.184,-3.177,-3.1764,-3.1829,-3.1829,-3.1829,0,0,-3.3201,-3.3109,-3.3062,-3.2913,-3.2833,-3.2744,-3.2714,-3.2621,-3.2552,-3.247,-3.2352,-3.2277,-3.2151,-3.2032,-3.1974,-3.1968,-3.1814,-3.1844,-3.1845,-3.1836,-3.1765,-3.1759,-3.1754,-3.1826,-3.1827,-3.1827,0,0,-3.3166,-3.3089,-3.3012,-3.2933,-3.2815,-3.2743,-3.2725,-3.2592,-3.254,-3.2421,-3.2358,-3.227,-3.2093,-3.2006,-3.1939,-3.1869,-3.1823,-3.1837,-3.1836,-3.1769,-3.1764,-3.1759,-3.1731,-3.1723,-3.1829,-3.183,-3.183,0,-3.3185,-3.3056,-3.2975,-3.2887,-3.2821,-3.2749,-3.2666,-3.2592,-3.2443,-3.2396,-3.2392,-3.2168,-3.2078,-3.1937,-3.1921,-3.1869,-3.184,-3.1854,-3.1772,-3.1766,-3.176,-3.1733,-3.1723,-3.1832,-3.1832,-3.1831,-3.1831,0,-3.3084,-3.2994,-3.2945,-3.281,-3.2738,-3.2652,-3.2553,-3.2489,-3.244,-3.2367,-3.2243,-3.2133,-3.2006,-3.1967,-3.1916,-3.1817,-3.1817,-3.1794,-3.1786,-3.1758,-3.173,-3.1719,-3.1836,-3.1835,-3.1834,-3.1833,0,0,-3.3085,-3.2909,-3.2892,-3.2829,-3.2692,-3.2618,-3.2526,-3.2408,-3.2353,-3.2251,-3.2169,-3.2021,-3.1999,-3.1922,-3.1859,-3.1801,-3.175,-3.1784,-3.178,-3.1781,-3.1631,-3.1649,-3.1639,-3.172,-3.1717,-3.1715,-3.1641,0,-3.303,-3.2872,-3.2797,-3.2668,-3.2582,-3.2512,-3.2431,-3.2335,-3.2264,-3.2174,-3.2092,-3.1989,-3.1969,-3.1922,-3.1861,-3.177,-3.1718,-3.1774,-3.1636,-3.1632,-3.167,-3.1624,-3.1643,-3.1578,-3.163,-3.1628,-3.1627,0,-3.2945,-3.2852,-3.2717,-3.259,-3.2551,-3.2481,-3.2365,-3.2282,-3.2169,-3.2121,-3.2037,-3.1976,-3.187,-3.1871,-3.1722,-3.1761,-3.1699,-3.1646,-3.1641,-3.1623,-3.1627,-3.1604,-3.1556,-3.1546,-3.1609,-3.1611,-3.1612,0,-3.2958,-3.2797,-3.2695,-3.2643,-3.2493,-3.2445,-3.2379,-3.2268,-3.2201,-3.2097,-3.2051,-3.1934,-3.1869,-3.1777,-3.1684,-3.1694,-3.1542,-3.1535,-3.1494,-3.1496,-3.1464,-3.1467,-3.1404,-3.1427,-3.1427,-3.1428,-3.1428,0,-3.2904,-3.2824,-3.2699,-3.2637,-3.2542,-3.2453,-3.236,-3.2288,-3.219,-3.2107,-3.2036,-3.1958,-3.1842,-3.1747,-3.1672,-3.1558,-3.1529,-3.1483,-3.1464,-3.1489,-3.1494,-3.1446,-3.1447,-3.1425,-3.1425,-3.1426,-3.1426,0,-3.2903,-3.2817,-3.2701,-3.257,-3.2534,-3.247,-3.2354,-3.2287,-3.2213,-3.2108,-3.2078,-3.1958,-3.1843,-3.1743,-3.1588,-3.1538,-3.142,-3.1397,-3.1461,-3.145,-3.1414,-3.1418,-3.1316,-3.1297,-3.1335,-3.1335,-3.1335,0,-3.2874,-3.2811,-3.2675,-3.2618,-3.2555,-3.2462,-3.2395,-3.2302,-3.2234,-3.21,-3.2048,-3.193,-3.183,-3.1648,-3.1543,-3.1424,-3.1396,-3.1369,-3.1377,-3.1404,-3.1393,-3.1398,-3.139,-3.1368,-3.1369,-3.1369,-3.1369,0,-3.2831,-3.2792,-3.2701,-3.2594,-3.2518,-3.2427,-3.2334,-3.2289,-3.2178,-3.2103,-3.1989,-3.1912,-3.1757,-3.1638,-3.1508,-3.1432,-3.1379,-3.1367,-3.1351,-3.1375,-3.1414,-3.1391,-3.146,-3.1369,-3.1369,-3.1369,-3.1369,-3.1369,-3.2813,-3.2754,-3.2649,-3.2549,-3.2471,-3.2386,-3.2317,-3.2235,-3.214,-3.2012,-3.1961,-3.1843,-3.1727,-3.1548,-3.1471,-3.1373,-3.1364,-3.1341,-3.1334,-3.133,-3.1334,-3.1432,-3.1349,-3.1348,-3.1348,-3.1348,-3.1348,0,-3.2765,-3.2695,-3.2604,-3.248,-3.24,-3.2365,-3.2259,-3.2193,-3.2093,-3.1993,-3.1897,-3.1763,-3.1647,-3.1534,-3.1411,-3.1353,-3.1326,-3.1324,-3.1326,-3.1309,-3.135,-3.1376,-3.1348,-3.1348,-3.1348,-3.1348,-3.1348,-3.1348,-3.2731,-3.2629,-3.2577,-3.2432,-3.236,-3.225,-3.2192,-3.2111,-3.2031,-3.1887,-3.1793,-3.1723,-3.1615,-3.1483,-3.1373,-3.1342,-3.1298,-3.1302,-3.1264,-3.1305,-3.1306,-3.1307,-3.1331,-3.1294,-3.1294,-3.1231,-3.123,-3.123]}]]